M I D A S
Marine Information and Data Acquisition System
Tripno 1958 of the Zeeleeuw from 2010-09-09 08:09:41 to 2010-09-09 16:25:01
Back to CruiseResearch ActivitiesStationsMapUnderway DataData graphs

EquipmentUnitsComment
TimeDGPSUTC
LatitudeDGPSDM.mWGS84
LongitudeDGPSDM.mWGS84
TemperatureSBE03/SBE38deg celciusITS90
ConductivitySBE21S/mITS90
SalinitySBE21 Practical Salinity Units
ChlorophylAChelsea fluorimeterg/lCalibrated in Aceton
Missing or incorrect values are displayed as -999
Sea surface data collected by the RV Zeeleeuw from 2010-09-09 06:27:41 to 2010-09-09 16:33:28
Time Latitude Longitude Temperature Conductivity Salinity ChlorophylA
2010-09-09 06:28:45 51°13.666 2°55.945 20.3762 0.074006 0.413083 -0.861272
2010-09-09 06:29:45 51°13.687 2°55.861 20.3862 0.074006 0.413089 -0.861272
2010-09-09 06:30:45 51°13.69 2°55.761 20.3897 0.074006 0.413083 -0.826448
2010-09-09 06:31:43 51°13.698 2°55.745 20.4013 0.074006 0.413103 -0.861272
2010-09-09 06:32:41 51°13.745 2°55.719 20.3883 0.074006 0.413089 -0.861272
2010-09-09 06:33:42 51°13.846 2°55.614 20.3124 0.074006 0.41311 -0.861272
2010-09-09 06:34:42 51°13.988 2°55.521 20.3551 0.074006 0.413137 -0.826448
2010-09-09 06:35:42 51°14.14 2°55.417 20.377 0.074006 0.41313 -0.826448
2010-09-09 06:36:42 51°14.283 2°55.275 20.3763 0.074006 0.413144 -0.826448
2010-09-09 06:37:42 51°14.432 2°55.137 20.3515 0.074006 0.413151 -0.826448
2010-09-09 06:38:42 51°14.594 2°54.965 20.278 0.074006 0.413151 -0.861272
2010-09-09 06:39:42 51°14.758 2°54.738 20.3269 0.074006 0.413165 -0.861272
2010-09-09 06:40:42 51°14.922 2°54.519 20.3332 0.074006 0.413171 -0.861272
2010-09-09 06:41:42 51°15.097 2°54.336 20.3185 0.074006 0.413192 -0.861272
2010-09-09 06:42:41 51°15.264 2°54.131 20.3094 0.074006 0.413206 -0.826448
2010-09-09 06:43:42 51°15.441 2°53.925 20.308 0.073902 0.412611 -0.826448
2010-09-09 06:44:41 51°15.617 2°53.736 20.3106 0.074006 0.413226 -0.826448
2010-09-09 06:45:41 51°15.796 2°53.546 20.2787 0.074006 0.413233 -0.861272
2010-09-09 06:46:42 51°15.988 2°53.384 20.3237 0.074006 0.41324 -0.826448
2010-09-09 06:47:42 51°16.179 2°53.245 20.3284 0.074006 0.413254 -0.826448
2010-09-09 06:48:41 51°16.366 2°53.108 20.2986 0.073902 0.412652 -0.826448
2010-09-09 06:49:42 51°16.56 2°52.964 20.3123 0.074006 0.41326 -0.826448
2010-09-09 06:50:42 51°16.752 2°52.835 20.3217 0.073902 0.412666 -0.826448
2010-09-09 06:51:41 51°16.938 2°52.732 20.3584 0.073902 0.41268 -0.826448
2010-09-09 06:52:42 51°17.135 2°52.632 20.3708 0.074006 0.413288 -0.861272
2010-09-09 06:53:41 51°17.327 2°52.561 20.3821 0.073902 0.41268 -0.861272
2010-09-09 06:54:42 51°17.506 2°52.674 20.3962 0.074006 0.413308 -0.861272
2010-09-09 06:55:41 51°17.636 2°52.893 20.4076 0.073902 0.412693 -0.861272
2010-09-09 06:56:42 51°17.772 2°53.118 20.4195 0.073902 0.4127 -0.826448
2010-09-09 06:57:42 51°17.924 2°53.304 20.4303 0.073902 0.412693 -0.826448
2010-09-09 06:58:41 51°18.076 2°53.481 20.4458 0.073902 0.412714 -0.826448
2010-09-09 06:59:42 51°18.235 2°53.662 20.4612 0.073902 0.412741 -0.896096
2010-09-09 07:00:42 51°18.394 2°53.832 20.4771 0.073902 0.412741 -0.861272
2010-09-09 07:01:42 51°18.558 2°53.989 20.4951 0.074006 0.413329 -0.861272
2010-09-09 07:02:42 51°18.724 2°54.144 20.5219 0.073902 0.412741 -0.826448
2010-09-09 07:03:42 51°18.886 2°54.308 20.7358 0.073902 0.412762 -0.861272
2010-09-09 07:04:42 51°19.038 2°54.494 20.788 0.073902 0.412769 -0.826448
2010-09-09 07:05:42 51°19.19 2°54.681 20.7722 0.073902 0.412762 -0.826448
2010-09-09 07:06:42 51°19.343 2°54.868 20.8128 0.074006 0.413377 -0.826448
2010-09-09 07:07:42 51°19.496 2°55.054 20.7281 0.073902 0.412789 -0.861272
2010-09-09 07:08:42 51°19.648 2°55.238 20.7738 0.073902 0.412775 -0.861272
2010-09-09 07:09:42 51°19.8 2°55.421 20.7893 0.073902 0.412782 -0.826448
2010-09-09 07:10:42 51°19.954 2°55.604 20.7239 0.073902 0.412782 -0.861272
2010-09-09 07:11:41 51°20.104 2°55.782 20.7481 0.073902 0.412796 -0.861272
2010-09-09 07:12:42 51°20.257 2°55.967 20.7399 0.073902 0.412796 -0.826448
2010-09-09 07:13:42 51°20.41 2°56.146 20.7505 0.073902 0.412796 -0.861272
2010-09-09 07:14:42 51°20.562 2°56.324 20.7491 0.073902 0.412816 -0.826448
2010-09-09 07:15:42 51°20.714 2°56.505 20.6953 0.073902 0.412803 -0.826448
2010-09-09 07:16:42 51°20.868 2°56.683 20.6991 0.073902 0.412816 -0.826448
2010-09-09 07:17:42 51°21.022 2°56.861 20.7684 0.073902 0.412857 -0.861272
2010-09-09 07:18:42 51°21.176 2°57.039 20.797 0.073902 0.412823 -0.861272
2010-09-09 07:19:42 51°21.331 2°57.216 20.8201 0.073902 0.412837 -0.861272
2010-09-09 07:20:42 51°21.484 2°57.393 20.8605 0.073902 0.412837 -0.826448
2010-09-09 07:21:42 51°21.636 2°57.571 20.8896 0.073902 0.412844 -0.861272
2010-09-09 07:22:41 51°21.784 2°57.747 20.9287 0.073902 0.412851 -0.826448
2010-09-09 07:23:42 51°21.938 2°57.929 20.9525 0.073902 0.412871 -0.826448
2010-09-09 07:24:41 51°22.086 2°58.108 20.9763 0.073902 0.412857 -0.826448
2010-09-09 07:25:41 51°22.236 2°58.292 21.0227 0.073902 0.412871 -0.826448
2010-09-09 07:26:42 51°22.389 2°58.481 21.0528 0.073902 0.412857 -0.861272
2010-09-09 07:27:41 51°22.538 2°58.664 20.7054 0.073902 0.412885 -0.826448
2010-09-09 07:28:42 51°22.691 2°58.854 19.6273 0.073902 0.412885 -0.826448
2010-09-09 07:29:41 51°22.838 2°59.039 19.6954 0.073902 0.412898 -0.826448
2010-09-09 07:30:42 51°22.991 2°59.229 19.9493 0.073902 0.412898 -0.826448
2010-09-09 07:31:42 51°23.142 2°59.407 20.0656 0.073902 0.412878 -0.791624
2010-09-09 07:32:42 51°23.292 2°59.584 20.1664 0.073902 0.412898 -0.826448
2010-09-09 07:33:42 51°23.441 2°59.763 20.0992 0.073902 0.412912 -0.791624
2010-09-09 07:34:41 51°23.594 2°59.918 19.9933 0.073902 0.412946 -0.791624
2010-09-09 07:35:41 51°23.789 2°59.915 20.3163 0.073902 0.412926 -0.791624
2010-09-09 07:36:41 51°23.983 2°59.951 20.3458 0.073902 0.412946 -0.791624
2010-09-09 07:37:42 51°24.169 3°0.046 20.3028 0.073902 0.412953 -0.7568
2010-09-09 07:38:41 51°24.342 3°0.17 20.3482 0.073902 0.41294 -0.826448
2010-09-09 07:39:42 51°24.52 3°0.3 20.3376 0.073902 0.41294 -0.791624
2010-09-09 07:40:41 51°24.69 3°0.441 20.4152 0.073902 0.41294 -0.7568
2010-09-09 07:41:42 51°24.87 3°0.591 20.4729 0.073902 0.41294 -0.791624
2010-09-09 07:42:42 51°25.045 3°0.74 20.4525 0.073902 0.41296 -0.826448
2010-09-09 07:43:42 51°25.218 3°0.89 20.4583 0.073902 0.41296 -0.7568
2010-09-09 07:44:42 51°25.392 3°1.038 20.4843 0.073902 0.41296 -0.7568
2010-09-09 07:45:42 51°25.566 3°1.183 20.4746 0.073902 0.412974 -0.791624
2010-09-09 07:46:42 51°25.732 3°1.341 20.5274 0.073902 0.412987 -0.791624
2010-09-09 07:47:41 51°25.888 3°1.51 20.5529 0.073902 0.412974 -0.791624
2010-09-09 07:48:41 51°26.043 3°1.682 20.6223 0.073902 0.412974 -0.791624
2010-09-09 07:49:41 51°26.196 3°1.848 20.6149 0.073902 0.412981 -0.791624
2010-09-09 07:50:42 51°26.351 3°2.019 20.6193 0.073902 0.412987 -0.791624
2010-09-09 07:51:41 51°26.501 3°2.18 20.6505 0.073902 0.412987 -0.826448
2010-09-09 07:52:41 51°26.65 3°2.353 20.6673 0.073902 0.412987 -0.791624
2010-09-09 07:53:42 51°26.795 3°2.545 20.6879 0.073902 0.413001 -0.826448
2010-09-09 07:54:41 51°26.931 3°2.736 20.7331 0.073902 0.412994 -0.826448
2010-09-09 07:55:42 51°27.068 3°2.944 20.7436 0.073902 0.412994 -0.826448
2010-09-09 07:56:41 51°27.196 3°3.152 20.7687 0.073902 0.412987 -0.7568
2010-09-09 07:57:42 51°27.318 3°3.385 20.7693 0.073902 0.413008 -0.791624
2010-09-09 07:58:41 51°27.44 3°3.613 20.7792 0.073902 0.412994 -0.826448
2010-09-09 07:59:41 51°27.566 3°3.844 20.8063 0.073902 0.413008 -0.826448
2010-09-09 08:00:41 51°27.692 3°4.071 20.8246 0.073902 0.413015 -0.791624
2010-09-09 08:01:42 51°27.794 3°4.334 20.8233 0.073902 0.413035 -0.791624
2010-09-09 08:02:42 51°27.909 3°4.576 20.8456 0.073902 0.413015 -0.826448
2010-09-09 08:03:42 51°28.029 3°4.811 20.8595 0.073902 0.413015 -0.826448
2010-09-09 08:04:41 51°28.146 3°5.042 20.8777 0.073902 0.413015 -0.791624
2010-09-09 08:05:42 51°28.267 3°5.28 20.8914 0.073902 0.413015 -0.826448
2010-09-09 08:06:42 51°28.387 3°5.517 20.9176 0.073902 0.413022 -0.791624
2010-09-09 08:07:41 51°28.488 3°5.739 20.9828 0.073902 0.413035 -0.791624
2010-09-09 08:08:42 51°28.518 3°5.893 21.0315 0.073902 0.413029 -0.791624
2010-09-09 08:09:41 51°28.546 3°6.009 21.0884 0.073902 0.413029 -0.791624
2010-09-09 08:10:41 51°28.575 3°6.108 21.1584 0.073902 0.413022 -0.791624
2010-09-09 08:11:42 51°28.557 3°6.139 21.1598 0.073902 0.413056 -0.7568
2010-09-09 08:12:42 51°28.54 3°6.116 21.1857 0.073902 0.413022 -0.7568
2010-09-09 08:13:41 51°28.523 3°6.096 18.0908 0.073902 0.412946 -0.791624
2010-09-09 08:14:41 51°28.505 3°6.08 17.5291 4.126203 30.950947 0.148626
2010-09-09 08:15:42 51°28.485 3°6.064 17.4974 4.194476 31.854991 0.218274
2010-09-09 08:16:41 51°28.464 3°6.05 17.4829 4.196376 31.912198 0.18345
2010-09-09 08:17:42 51°28.44 3°6.035 17.475 4.19606 31.929535 0.148626
2010-09-09 08:18:42 51°28.415 3°6.022 17.4374 4.195111 31.933495 0.253098
2010-09-09 08:19:42 51°28.388 3°6.007 17.4355 4.194689 31.944808 0.253098
2010-09-09 08:20:42 51°28.344 3°6.028 17.4405 4.193001 31.935618 0.287922
2010-09-09 08:21:42 51°28.367 3°6.125 17.4441 4.193739 31.943617 0.322746
2010-09-09 08:22:42 51°28.497 3°6.129 17.4485 4.193845 31.939927 0.322746
2010-09-09 08:23:42 51°28.582 3°6.153 17.4555 4.197538 31.96673 0.462042
2010-09-09 08:24:42 51°28.585 3°6.183 17.4555 4.199542 31.980902 0.496866
2010-09-09 08:25:42 51°28.57 3°6.201 17.4604 4.203447 32.012366 0.462042
2010-09-09 08:26:42 51°28.56 3°6.207 17.459 4.203236 32.009423 0.35757
2010-09-09 08:27:41 51°28.551 3°6.203 17.4565 4.204291 32.016095 0.427218
2010-09-09 08:28:41 51°28.552 3°6.21 17.4585 4.203025 32.007629 0.392394
2010-09-09 08:29:42 51°28.513 3°6.301 17.4575 4.202602 32.00519 0.35757
2010-09-09 08:30:41 51°28.376 3°6.288 17.4552 4.203869 32.011358 0.322746
2010-09-09 08:31:42 51°28.226 3°6.075 17.4479 4.200176 31.983987 0.392394
2010-09-09 08:32:41 51°28.104 3°5.884 17.4383 4.198276 31.97473 0.392394
2010-09-09 08:33:42 51°28.115 3°5.753 17.4315 4.179705 31.826061 0.322746
2010-09-09 08:34:41 51°28.167 3°5.736 17.4355 4.192262 31.938513 0.392394
2010-09-09 08:35:42 51°28.216 3°5.752 17.4404 4.193739 31.94419 0.462042
2010-09-09 08:36:41 51°28.264 3°5.77 17.4462 4.195322 31.955352 0.427218
2010-09-09 08:37:42 51°28.303 3°5.818 17.4549 4.190996 31.911702 0.496866
2010-09-09 08:38:42 51°28.338 3°5.852 17.4619 4.197643 31.964185 0.35757
2010-09-09 08:39:42 51°28.373 3°5.876 17.465 4.191628 31.906203 0.322746
2010-09-09 08:40:42 51°28.407 3°5.901 17.4641 4.206084 32.02732 0.287922
2010-09-09 08:41:41 51°28.437 3°5.944 17.4626 4.204713 32.013938 0.322746
2010-09-09 08:42:42 51°28.472 3°5.986 17.4624 4.204818 32.014835 0.35757
2010-09-09 08:43:41 51°28.512 3°6.018 17.4574 4.201547 31.99335 0.322746
2010-09-09 08:44:42 51°28.542 3°6.074 17.4622 4.201547 31.996795 0.462042
2010-09-09 08:45:44 51°28.575 3°6.127 17.4643 4.194372 31.92722 0.287922
2010-09-09 08:46:44 51°28.612 3°6.17 17.4679 4.198065 31.96261 0.253098
2010-09-09 08:47:44 51°28.644 3°6.222 17.4762 4.19912 31.966989 0.218274
2010-09-09 08:48:44 51°28.678 3°6.274 17.4896 4.208195 32.032616 0.218274
2010-09-09 08:49:44 51°28.719 3°6.307 17.5026 4.212099 32.058319 0.18345
2010-09-09 08:50:44 51°28.759 3°6.343 17.5118 4.217164 32.089275 0.113802
2010-09-09 08:51:44 51°28.776 3°6.413 17.5188 4.219696 32.106186 0.322746
2010-09-09 08:52:44 51°28.772 3°6.499 17.5241 4.224972 32.138914 0.392394
2010-09-09 08:53:44 51°28.733 3°6.581 17.5306 4.224655 32.136225 0.322746
2010-09-09 08:54:44 51°28.664 3°6.63 17.5338 4.224866 32.132839 0.218274
2010-09-09 08:55:44 51°28.6 3°6.641 17.5274 4.224972 32.136612 0.218274
2010-09-09 08:56:44 51°28.547 3°6.635 17.5248 4.224972 32.133735 0.253098
2010-09-09 08:57:44 51°28.503 3°6.622 17.5187 4.222861 32.122717 0.35757
2010-09-09 08:58:44 51°28.447 3°6.631 17.5137 4.221279 32.112727 0.322746
2010-09-09 08:59:44 51°28.44 3°6.702 17.5146 4.221701 32.122641 0.496866
2010-09-09 09:00:44 51°28.494 3°6.633 17.5335 4.220012 32.104273 0.322746
2010-09-09 09:01:44 51°28.603 3°6.445 17.547 4.224444 32.128679 0.253098
2010-09-09 09:02:44 51°28.768 3°6.266 17.554 4.23067 32.170604 0.392394
2010-09-09 09:03:44 51°28.961 3°6.212 17.5566 4.233941 32.192616 0.427218
2010-09-09 09:04:44 51°29.156 3°6.232 17.5705 4.237317 32.216672 0.35757
2010-09-09 09:05:44 51°29.351 3°6.249 17.5789 4.243015 32.255241 0.35757
2010-09-09 09:06:44 51°29.524 3°6.289 17.6023 4.24502 32.262452 0.322746
2010-09-09 09:07:44 51°29.649 3°6.425 17.6105 4.251562 32.300657 0.322746
2010-09-09 09:08:44 51°29.69 3°6.539 17.6196 4.255889 32.332168 0.287922
2010-09-09 09:09:44 51°29.67 3°6.571 17.6196 4.258421 32.347877 0.218274
2010-09-09 09:10:44 51°29.647 3°6.556 17.614 4.258421 32.347299 0.253098
2010-09-09 09:11:44 51°29.624 3°6.541 17.6124 4.258738 32.35403 0.287922
2010-09-09 09:12:44 51°29.601 3°6.525 17.6147 4.256733 32.337597 0.253098
2010-09-09 09:13:44 51°29.577 3°6.511 17.6371 4.258105 32.344613 0.287922
2010-09-09 09:14:44 51°29.554 3°6.498 17.6268 4.259793 32.346227 0.253098
2010-09-09 09:15:44 51°29.521 3°6.484 17.628 4.259899 32.350587 0.218274
2010-09-09 09:16:44 51°29.461 3°6.402 17.6154 4.259476 32.349318 0.18345
2010-09-09 09:17:44 51°29.466 3°6.298 17.6187 4.257155 32.336557 0.253098
2010-09-09 09:18:44 51°29.499 3°6.298 17.6192 4.257894 32.346289 0.287922
2010-09-09 09:19:44 51°29.548 3°6.342 17.6273 4.259265 32.352149 0.253098
2010-09-09 09:20:44 51°29.589 3°6.373 17.6287 4.259054 32.345737 0.218274
2010-09-09 09:21:44 51°29.599 3°6.375 17.6291 4.258738 32.34594 0.18345
2010-09-09 09:22:44 51°29.599 3°6.369 17.6336 4.261059 32.359854 0.18345
2010-09-09 09:23:44 51°29.592 3°6.356 17.626 4.260426 32.352174 0.18345
2010-09-09 09:24:44 51°29.595 3°6.348 17.6299 4.25916 32.342012 0.218274
2010-09-09 09:25:44 51°29.625 3°6.392 17.6347 4.259793 32.348537 0.253098
2010-09-09 09:26:44 51°29.664 3°6.448 17.6308 4.259265 32.342907 0.218274
2010-09-09 09:27:44 51°29.697 3°6.501 17.6393 4.260004 32.349172 0.18345
2010-09-09 09:28:44 51°29.728 3°6.556 17.6339 4.259476 32.340655 0.18345
2010-09-09 09:29:44 51°29.761 3°6.61 17.6369 4.260637 32.351076 0.18345
2010-09-09 09:30:44 51°29.798 3°6.659 17.6334 4.259371 32.340338 0.18345
2010-09-09 09:31:44 51°29.836 3°6.718 17.6302 4.257894 32.331851 0.287922
2010-09-09 09:32:44 51°29.874 3°6.779 17.6269 4.255677 32.312483 0.253098
2010-09-09 09:33:44 51°29.912 3°6.84 17.629 4.25726 32.328791 0.287922
2010-09-09 09:34:44 51°29.95 3°6.9 17.6278 4.254939 32.30968 0.253098
2010-09-09 09:35:44 51°29.985 3°6.958 17.6246 4.256311 32.321891 0.218274
2010-09-09 09:36:44 51°30.019 3°7.015 17.623 4.254939 32.311988 0.218274
2010-09-09 09:37:44 51°30.051 3°7.076 17.6238 4.254939 32.30968 0.218274
2010-09-09 09:38:44 51°30.078 3°7.142 17.6181 4.253989 32.301627 0.287922
2010-09-09 09:39:44 51°30.093 3°7.219 17.6156 4.252829 32.301589 0.287922
2010-09-09 09:40:44 51°30.089 3°7.301 17.6146 4.252617 32.296915 0.322746
2010-09-09 09:41:44 51°30.063 3°7.367 17.6165 4.25019 32.275755 0.287922
2010-09-09 09:42:44 51°30.025 3°7.404 17.613 4.250507 32.279593 0.218274
2010-09-09 09:43:44 51°29.985 3°7.419 17.6149 4.250824 32.284007 0.18345
2010-09-09 09:44:44 51°29.941 3°7.447 17.611 4.249663 32.272434 0.287922
2010-09-09 09:45:44 51°29.948 3°7.5 17.6126 4.24808 32.268232 0.427218
2010-09-09 09:46:44 51°29.984 3°7.429 17.6145 4.249452 32.275256 0.218274
2010-09-09 09:47:44 51°30.014 3°7.194 17.6248 4.249979 32.275695 0.113802
2010-09-09 09:48:44 51°30.007 3°6.838 17.6275 4.251773 32.281107 0.18345
2010-09-09 09:49:44 51°30.039 3°6.479 17.6406 4.254939 32.301029 0.218274
2010-09-09 09:50:44 51°30.114 3°6.138 17.653 4.256627 32.309 0.18345
2010-09-09 09:51:44 51°30.194 3°5.803 17.6641 4.260742 32.336962 0.287922
2010-09-09 09:52:44 51°30.273 3°5.466 17.6632 4.261586 32.334888 0.18345
2010-09-09 09:53:44 51°30.344 3°5.163 17.6636 4.261692 32.335205 0.287922
2010-09-09 09:54:44 51°30.384 3°5.049 17.6619 4.264858 32.361456 0.287922
2010-09-09 09:55:44 51°30.38 3°5.031 17.6578 4.26222 32.338523 0.287922
2010-09-09 09:56:44 51°30.37 3°5.025 17.6717 4.26338 32.350667 0.253098
2010-09-09 09:57:44 51°30.358 3°5.015 17.6766 4.264647 32.356782 0.253098
2010-09-09 09:58:44 51°30.343 3°5.001 17.6779 4.264541 32.350695 0.322746
2010-09-09 09:59:44 51°30.327 3°4.987 17.7251 4.265491 32.352397 0.18345
2010-09-09 10:00:44 51°30.309 3°4.975 17.6997 4.269289 32.34768 0.113802
2010-09-09 10:01:45 51°30.289 3°4.963 17.6945 4.26644 32.344876 0.078977
2010-09-09 10:02:44 51°30.271 3°4.952 17.6888 4.266757 32.35505 0.113802
2010-09-09 10:03:44 51°30.253 3°4.942 17.6887 4.264013 32.338153 0.113802
2010-09-09 10:04:44 51°30.249 3°4.928 17.6871 4.266862 32.357097 0.044153
2010-09-09 10:05:44 51°30.292 3°4.885 17.6769 4.265807 32.36027 0.253098
2010-09-09 10:06:44 51°30.346 3°4.851 17.6809 4.265702 32.361107 0.148626
2010-09-09 10:07:44 51°30.393 3°4.832 17.6765 4.266335 32.36301 0.113802
2010-09-09 10:08:44 51°30.438 3°4.833 17.6862 4.265385 32.356117 0.148626
2010-09-09 10:09:44 51°30.479 3°4.85 17.6881 4.26739 32.366757 0.148626
2010-09-09 10:10:44 51°30.514 3°4.885 17.6897 4.268023 32.370967 0.113802
2010-09-09 10:11:44 51°30.548 3°4.922 17.6816 4.26834 32.377111 0.113802
2010-09-09 10:12:44 51°30.584 3°4.959 17.689 4.266651 32.357616 0.113802
2010-09-09 10:13:44 51°30.621 3°4.991 17.6947 4.27045 32.388064 0.148626
2010-09-09 10:14:44 51°30.657 3°5.025 17.6965 4.270767 32.387282 0.148626
2010-09-09 10:15:44 51°30.695 3°5.058 17.7061 4.269922 32.378401 0.078977
2010-09-09 10:16:44 51°30.732 3°5.09 17.7061 4.271083 32.383616 0.113802
2010-09-09 10:17:44 51°30.77 3°5.123 17.7108 4.271189 32.385664 0.113802
2010-09-09 10:18:44 51°30.808 3°5.156 17.7083 4.273299 32.395458 0.078977
2010-09-09 10:19:44 51°30.844 3°5.191 17.7121 4.272138 32.390822 0.078977
2010-09-09 10:20:44 51°30.882 3°5.225 17.7116 4.27446 32.409328 0.113802
2010-09-09 10:21:44 51°30.921 3°5.259 17.7189 4.275726 32.411392 0.078977
2010-09-09 10:22:44 51°30.959 3°5.292 17.7287 4.277098 32.425895 0.044153
2010-09-09 10:23:44 51°30.995 3°5.328 17.7223 4.278892 32.434155 0.044153
2010-09-09 10:24:44 51°31.021 3°5.38 17.706 4.277626 32.430363 0.148626
2010-09-09 10:25:44 51°31.029 3°5.454 17.7144 4.279947 32.445979 0.148626
2010-09-09 10:26:44 51°31.006 3°5.535 17.7201 4.279842 32.441042 0.078977
2010-09-09 10:27:44 51°30.96 3°5.594 17.7216 4.280158 32.443145 0.078977
2010-09-09 10:28:44 51°30.914 3°5.619 17.718 4.277309 32.427105 0.113802
2010-09-09 10:29:44 51°30.872 3°5.627 17.7139 4.276781 32.419173 0.148626
2010-09-09 10:30:44 51°30.835 3°5.628 17.7239 4.276043 32.418691 0.148626
2010-09-09 10:31:44 51°30.786 3°5.622 17.7159 4.27657 32.415654 0.148626
2010-09-09 10:32:44 51°30.73 3°5.573 17.7204 4.275515 32.413646 0.148626
2010-09-09 10:33:44 51°30.711 3°5.48 17.7052 4.274038 32.39652 0.113802
2010-09-09 10:34:44 51°30.755 3°5.427 17.7094 4.272033 32.389928 0.253098
2010-09-09 10:35:44 51°30.86 3°5.401 17.7185 4.276148 32.419585 0.078977
2010-09-09 10:36:44 51°30.998 3°5.346 17.7303 4.278681 32.431214 0.009329
2010-09-09 10:37:44 51°31.143 3°5.313 17.7386 4.281424 32.4504 0.113802
2010-09-09 10:38:44 51°31.29 3°5.288 17.7456 4.285857 32.482145 0.044153
2010-09-09 10:39:44 51°31.439 3°5.27 17.7502 4.290922 32.518088 0.044153
2010-09-09 10:40:44 51°31.539 3°5.263 17.7674 4.293771 32.529477 0.044153
2010-09-09 10:41:44 51°31.583 3°5.233 17.7515 4.296726 32.556803 0.078977
2010-09-09 10:42:44 51°31.602 3°5.206 17.7561 4.296198 32.562184 0.148626
2010-09-09 10:43:44 51°31.609 3°5.189 17.7527 4.29757 32.566847 0.218274
2010-09-09 10:44:44 51°31.605 3°5.184 17.7796 4.297359 32.566219 0.148626
2010-09-09 10:45:44 51°31.595 3°5.185 17.7729 4.299575 32.562968 0.148626
2010-09-09 10:46:44 51°31.584 3°5.19 17.7566 4.299786 32.57344 0.148626
2010-09-09 10:47:44 51°31.573 3°5.195 17.796 4.29968 32.580079 0.148626
2010-09-09 10:48:44 51°31.56 3°5.2 17.783 4.303796 32.585365 0.044153
2010-09-09 10:49:44 51°31.547 3°5.205 17.822 4.301052 32.572574 0.078977
2010-09-09 10:50:44 51°31.534 3°5.213 17.8299 4.303795 32.573211 0.009329
2010-09-09 10:51:44 51°31.52 3°5.22 17.7791 4.30464 32.579193 0.009329
2010-09-09 10:52:44 51°31.506 3°5.227 17.7837 4.300102 32.570907 0.044153
2010-09-09 10:53:44 51°31.493 3°5.234 17.7961 4.300841 32.566736 0.044153
2010-09-09 10:54:44 51°31.481 3°5.241 17.7662 4.30274 32.575281 0.009329
2010-09-09 10:55:44 51°31.471 3°5.249 17.7734 4.297042 32.55485 0.078977
2010-09-09 10:56:44 51°31.462 3°5.257 17.7726 4.300313 32.573272 0.009329
2010-09-09 10:57:44 51°31.452 3°5.267 17.7879 4.299891 32.563332 -0.025495
2010-09-09 10:58:44 51°31.441 3°5.277 17.7659 4.301052 32.570259 0.078977
2010-09-09 10:59:44 51°31.43 3°5.289 17.7456 4.298309 32.569624 0.113802
2010-09-09 11:00:44 51°31.419 3°5.3 17.7709 4.296515 32.560809 0.113802
2010-09-09 11:01:44 51°31.408 3°5.313 17.7473 4.298414 32.566462 0.078977
2010-09-09 11:02:44 51°31.397 3°5.325 17.7901 4.298625 32.561879 0.044153
2010-09-09 11:03:44 51°31.386 3°5.337 17.7766 4.302635 32.581335 0.044153
2010-09-09 11:04:44 51°31.376 3°5.349 17.8178 4.29757 32.544846 -0.025495
2010-09-09 11:05:44 51°31.366 3°5.362 17.8335 4.303268 32.563544 -0.025495
2010-09-09 11:06:44 51°31.356 3°5.377 17.823 4.303901 32.558491 -0.060319
2010-09-09 11:07:44 51°31.346 3°5.392 17.8 4.303162 32.56323 -0.025495
2010-09-09 11:08:44 51°31.335 3°5.407 17.7898 4.300841 32.563843 0.009329
2010-09-09 11:09:44 51°31.325 3°5.425 17.805 4.301474 32.569778 0.009329
2010-09-09 11:10:44 51°31.315 3°5.442 17.8099 4.300841 32.552273 -0.025495
2010-09-09 11:11:45 51°31.306 3°5.46 17.8111 4.302529 32.564238 -0.060319
2010-09-09 11:12:44 51°31.298 3°5.477 17.8146 4.301896 32.560041 -0.060319
2010-09-09 11:13:44 51°31.29 3°5.495 17.8043 4.30179 32.559148 -0.025495
2010-09-09 11:14:44 51°31.283 3°5.514 17.8205 4.303057 32.569857 -0.025495
2010-09-09 11:15:44 51°31.276 3°5.532 17.8072 4.302845 32.555929 -0.060319
2010-09-09 11:16:44 51°31.271 3°5.552 17.807 4.301791 32.567826 0.044153
2010-09-09 11:17:44 51°31.265 3°5.573 17.795 4.300946 32.556636 0.044153
2010-09-09 11:18:44 51°31.29 3°5.574 17.7759 4.300419 32.566638 0.044153
2010-09-09 11:19:44 51°31.391 3°5.484 17.8058 4.299047 32.559661 0.078977
2010-09-09 11:20:44 51°31.49 3°5.258 17.8111 4.304851 32.594872 0.009329
2010-09-09 11:21:44 51°31.582 3°5.002 17.7734 4.309494 32.630098 0.113802
2010-09-09 11:22:44 51°31.662 3°4.835 17.8 4.310128 32.65286 0.078977
2010-09-09 11:23:44 51°31.696 3°4.799 17.8297 4.315193 32.675412 0.009329
2010-09-09 11:24:44 51°31.707 3°4.809 17.8168 4.318253 32.683309 0.18345
2010-09-09 11:25:44 51°31.716 3°4.826 17.8391 4.318359 32.688264 0.253098
2010-09-09 11:26:44 51°31.722 3°4.845 17.833 4.320152 32.687189 0.148626
2010-09-09 11:27:44 51°31.726 3°4.866 17.8461 4.320469 32.695668 0.218274
2010-09-09 11:28:44 51°31.729 3°4.89 17.8751 4.322263 32.692271 0.18345
2010-09-09 11:29:44 51°31.732 3°4.918 17.8493 4.324268 32.703999 0.18345
2010-09-09 11:30:44 51°31.733 3°4.95 17.8447 4.321524 32.692407 0.148626
2010-09-09 11:31:44 51°31.735 3°4.982 17.8669 4.321841 32.695083 0.18345
2010-09-09 11:32:44 51°31.737 3°5.016 17.8703 4.325956 32.709568 0.148626
2010-09-09 11:33:44 51°31.739 3°5.051 17.8787 4.324373 32.700251 0.044153
2010-09-09 11:34:44 51°31.742 3°5.088 17.8775 4.326589 32.713178 0.009329
2010-09-09 11:35:44 51°31.744 3°5.124 17.8808 4.32564 32.710373 -0.025495
2010-09-09 11:36:44 51°31.745 3°5.163 17.8542 4.326906 32.716434 -0.025495
2010-09-09 11:37:44 51°31.748 3°5.202 17.8517 4.323213 32.70262 0.009329
2010-09-09 11:38:45 51°31.751 3°5.24 17.86 4.324373 32.714174 0.078977
2010-09-09 11:39:45 51°31.754 3°5.279 17.8769 4.324162 32.706587 0.044153
2010-09-09 11:40:44 51°31.757 3°5.318 17.8622 4.325639 32.703414 0.078977
2010-09-09 11:41:45 51°31.759 3°5.358 17.872 4.324479 32.707523 0.078977
2010-09-09 11:42:44 51°31.788 3°5.387 17.8321 4.323212 32.691601 0.148626
2010-09-09 11:43:44 51°31.848 3°5.453 17.8073 4.32258 32.712356 0.148626
2010-09-09 11:44:44 51°31.838 3°5.583 17.8528 4.321208 32.710044 0.009329
2010-09-09 11:45:44 51°31.775 3°5.618 17.82 4.32374 32.711723 0.044153
2010-09-09 11:46:44 51°31.759 3°5.546 17.8549 4.320152 32.686029 -0.025495
2010-09-09 11:47:44 51°31.754 3°5.446 17.8177 4.320363 32.679694 0.044153
2010-09-09 11:48:44 51°31.738 3°5.393 17.8312 4.320258 32.696205 0.044153
2010-09-09 11:49:44 51°31.728 3°5.367 17.8404 4.320152 32.694732 0.044153
2010-09-09 11:50:44 51°31.725 3°5.352 17.8306 4.322474 32.706819 0.113802
2010-09-09 11:51:44 51°31.731 3°5.34 17.8261 4.321735 32.708119 0.148626
2010-09-09 11:52:44 51°31.746 3°5.34 17.8649 4.321208 32.710625 0.044153
2010-09-09 11:53:44 51°31.761 3°5.349 17.8521 4.324795 32.711359 0.218274
2010-09-09 11:54:44 51°31.776 3°5.361 17.8584 4.324585 32.718861 0.218274
2010-09-09 11:55:44 51°31.789 3°5.366 17.8601 4.323529 32.708197 0.322746
2010-09-09 11:56:44 51°31.796 3°5.343 17.8499 4.32469 32.71627 0.322746
2010-09-09 11:57:44 51°31.792 3°5.297 17.8546 4.323846 32.719001 0.113802
2010-09-09 11:58:44 51°31.812 3°5.247 17.8786 4.324268 32.71038 0.078977
2010-09-09 11:59:44 51°31.853 3°5.218 17.8678 4.327645 32.720935 0.009329
2010-09-09 12:00:44 51°31.899 3°5.209 17.8895 4.329228 32.738374 -0.025495
2010-09-09 12:01:44 51°31.949 3°5.216 17.882 4.329122 32.728198 0.009329
2010-09-09 12:02:44 51°32.002 3°5.252 17.8719 4.330388 32.74296 0.078977
2010-09-09 12:03:44 51°32.044 3°5.332 17.8555 4.328489 32.736194 0.113802
2010-09-09 12:04:44 51°32.063 3°5.432 17.8674 4.328278 32.741378 0.218274
2010-09-09 12:05:44 51°32.067 3°5.541 17.8607 4.329228 32.740696 0.113802
2010-09-09 12:06:44 51°32.066 3°5.656 17.855 4.32775 32.740402 0.078977
2010-09-09 12:07:44 51°32.06 3°5.77 17.8623 4.327223 32.735941 0.148626
2010-09-09 12:08:44 51°32.05 3°5.883 17.8538 4.327645 32.736606 0.148626
2010-09-09 12:09:44 51°32.034 3°5.992 17.8441 4.327012 32.738803 0.18345
2010-09-09 12:10:44 51°32.014 3°6.1 17.8576 4.327223 32.738845 0.148626
2010-09-09 12:11:44 51°31.963 3°6.137 17.8491 4.325851 32.719699 0.044153
2010-09-09 12:12:44 51°31.918 3°5.986 17.8397 4.325218 32.716087 0.078977
2010-09-09 12:13:44 51°31.856 3°5.756 17.8468 4.323846 32.714937 0.113802
2010-09-09 12:14:44 51°31.787 3°5.488 17.8768 4.32279 32.697891 0.113802
2010-09-09 12:15:44 51°31.708 3°5.222 17.8748 4.326589 32.717239 0.18345
2010-09-09 12:16:43 51°31.629 3°4.963 17.9002 4.327644 32.717455 0.18345
2010-09-09 12:17:43 51°31.548 3°4.699 17.9031 4.327644 32.701226 0.078977
2010-09-09 12:18:44 51°31.498 3°4.463 17.9125 4.330494 32.72355 0.148626
2010-09-09 12:19:43 51°31.595 3°4.436 17.9195 4.330705 32.720116 0.009329
2010-09-09 12:20:43 51°31.645 3°4.587 17.9228 4.333765 32.738421 0.078977
2010-09-09 12:21:43 51°31.644 3°4.706 17.9171 4.33482 32.744432 0.078977
2010-09-09 12:22:43 51°31.641 3°4.807 17.9186 4.331654 32.725817 0.113802
2010-09-09 12:23:44 51°31.64 3°4.906 17.9168 4.333026 32.732184 0.009329
2010-09-09 12:24:43 51°31.641 3°5.002 17.9014 4.331971 32.72791 0.078977
2010-09-09 12:25:44 51°31.641 3°5.099 17.9098 4.330282 32.720608 0.078977
2010-09-09 12:26:43 51°31.639 3°5.192 17.9152 4.330282 32.716551 0.044153
2010-09-09 12:27:43 51°31.638 3°5.286 17.9142 4.329755 32.705725 0.078977
2010-09-09 12:28:43 51°31.637 3°5.386 17.9149 4.328594 32.701137 0.044153
2010-09-09 12:29:44 51°31.635 3°5.491 17.9147 4.32775 32.696325 0.078977
2010-09-09 12:30:43 51°31.631 3°5.594 17.9226 4.328699 32.697974 0.113802
2010-09-09 12:31:43 51°31.619 3°5.699 17.9106 4.327011 32.679092 0.044153
2010-09-09 12:32:43 51°31.571 3°5.715 17.9118 4.325745 32.685186 -0.025495
2010-09-09 12:33:43 51°31.571 3°5.586 17.905 4.32279 32.655031 -0.025495
2010-09-09 12:34:43 51°31.551 3°5.337 17.922 4.325111 32.66653 0.148626
2010-09-09 12:35:43 51°31.477 3°5.088 17.9066 4.327116 32.679982 0.009329
2010-09-09 12:36:44 51°31.414 3°4.824 17.9059 4.326694 32.686836 0.113802
2010-09-09 12:37:44 51°31.368 3°4.555 17.9477 4.3268 32.684833 0.044153
2010-09-09 12:38:44 51°31.353 3°4.321 17.9745 4.332287 32.695268 0.044153
2010-09-09 12:39:43 51°31.444 3°4.301 17.9347 4.340307 32.750181 0.044153
2010-09-09 12:40:43 51°31.502 3°4.456 17.9413 4.344951 32.815453 0.148626
2010-09-09 12:41:43 51°31.496 3°4.578 17.97 4.343474 32.796017 0.078977
2010-09-09 12:42:44 51°31.488 3°4.674 17.9795 4.344212 32.786591 0.148626
2010-09-09 12:43:43 51°31.483 3°4.764 17.98 4.342312 32.759563 0.18345
2010-09-09 12:44:43 51°31.48 3°4.852 17.9765 4.338513 32.729266 0.113802
2010-09-09 12:45:43 51°31.476 3°4.941 17.9641 4.336402 32.714941 0.113802
2010-09-09 12:46:43 51°31.472 3°5.034 17.9466 4.332498 32.693579 0.113802
2010-09-09 12:47:43 51°31.468 3°5.129 17.9257 4.329016 32.679238 0.148626
2010-09-09 12:48:43 51°31.467 3°5.229 17.9249 4.326589 32.673215 0.148626
2010-09-09 12:49:43 51°31.468 3°5.332 17.9265 4.325533 32.662575 0.148626
2010-09-09 12:50:43 51°31.467 3°5.434 17.9261 4.3249 32.65492 0.148626
2010-09-09 12:51:43 51°31.465 3°5.534 17.9178 4.323106 32.640939 0.148626
2010-09-09 12:52:43 51°31.46 3°5.629 17.8967 4.321734 32.642076 0.148626
2010-09-09 12:53:43 51°31.447 3°5.702 17.8913 4.318991 32.629898 0.113802
2010-09-09 12:54:43 51°31.423 3°5.723 17.878 4.317091 32.621953 0.218274
2010-09-09 12:55:43 51°31.419 3°5.596 17.8897 4.315297 32.612585 0.113802
2010-09-09 12:56:43 51°31.407 3°5.331 17.9061 4.317724 32.620941 0.218274
2010-09-09 12:57:43 51°31.393 3°5.032 17.9491 4.320784 32.631748 0.253098
2010-09-09 12:58:43 51°31.381 3°4.733 17.8962 4.331232 32.698513 0.253098
2010-09-09 12:59:43 51°31.37 3°4.437 17.8803 4.329966 32.724891 0.218274
2010-09-09 13:00:43 51°31.362 3°4.14 17.8899 4.327539 32.714824 0.287922
2010-09-09 13:01:44 51°31.36 3°3.837 17.9283 4.329438 32.718695 0.253098
2010-09-09 13:02:43 51°31.358 3°3.543 17.9249 4.334609 32.74149 0.253098
2010-09-09 13:03:43 51°31.357 3°3.243 17.9754 4.343157 32.813083 0.287922
2010-09-09 13:04:43 51°31.357 3°2.942 17.9827 4.349277 32.816561 0.287922
2010-09-09 13:05:44 51°31.353 3°2.639 18.0185 4.363736 32.953095 0.322746
2010-09-09 13:06:43 51°31.349 3°2.347 18.0553 4.373339 32.989853 0.322746
2010-09-09 13:07:43 51°31.344 3°2.047 18.072 4.385898 33.069524 0.35757
2010-09-09 13:08:43 51°31.337 3°1.746 18.0789 4.400884 33.183619 0.462042
2010-09-09 13:09:44 51°31.33 3°1.438 18.0054 4.410488 33.25524 0.53169
2010-09-09 13:10:44 51°31.323 3°1.134 17.9055 4.413656 33.358413 0.462042
2010-09-09 13:11:44 51°31.315 3°0.831 17.9129 4.409224 33.386467 0.427218
2010-09-09 13:12:44 51°31.308 3°0.528 17.91 4.408908 33.387927 0.427218
2010-09-09 13:13:43 51°31.303 3°0.231 17.948 4.406374 33.350514 0.462042
2010-09-09 13:14:43 51°31.299 2°59.927 17.9767 4.402258 33.292676 0.496866
2010-09-09 13:15:43 51°31.296 2°59.624 18.0159 4.403629 33.2719 0.496866
2010-09-09 13:16:44 51°31.294 2°59.316 18.0525 4.406373 33.272742 0.496866
2010-09-09 13:17:43 51°31.293 2°59.019 18.0455 4.408061 33.26057 0.496866
2010-09-09 13:18:43 51°31.292 2°58.716 18.0495 4.411966 33.288242 0.496866
2010-09-09 13:19:43 51°31.292 2°58.414 18.0281 4.42041 33.365395 0.53169
2010-09-09 13:20:43 51°31.291 2°58.115 18.0471 4.419882 33.37095 0.496866
2010-09-09 13:21:43 51°31.291 2°57.818 18.0538 4.420198 33.361846 0.53169
2010-09-09 13:22:43 51°31.291 2°57.524 17.9814 4.422837 33.393553 0.462042
2010-09-09 13:23:43 51°31.283 2°57.224 17.9893 4.445319 33.625069 0.392394
2010-09-09 13:24:43 51°31.275 2°56.922 17.9726 4.455768 33.712336 0.35757
2010-09-09 13:25:43 51°31.272 2°56.619 17.9442 4.456612 33.730817 0.35757
2010-09-09 13:26:43 51°31.278 2°56.314 17.8952 4.455557 33.760698 0.287922
2010-09-09 13:27:43 51°31.289 2°56.003 17.8807 4.458302 33.819317 0.322746
2010-09-09 13:28:43 51°31.305 2°55.688 17.8591 4.458725 33.831901 0.287922
2010-09-09 13:29:43 51°31.32 2°55.372 17.8688 4.460519 33.849542 0.287922
2010-09-09 13:30:44 51°31.335 2°55.05 17.8446 4.46168 33.866614 0.253098
2010-09-09 13:31:43 51°31.351 2°54.737 17.8488 4.464424 33.900158 0.322746
2010-09-09 13:32:43 51°31.366 2°54.419 17.8444 4.465374 33.908232 0.287922
2010-09-09 13:33:43 51°31.376 2°54.099 17.8355 4.468013 33.934275 0.287922
2010-09-09 13:34:44 51°31.379 2°53.775 17.8355 4.471496 33.96992 0.322746
2010-09-09 13:35:43 51°31.382 2°53.463 17.8332 4.473502 33.986975 0.287922
2010-09-09 13:36:43 51°31.385 2°53.144 17.8313 4.475824 34.009745 0.287922
2010-09-09 13:37:43 51°31.387 2°52.826 17.8329 4.479201 34.039082 0.287922
2010-09-09 13:38:43 51°31.389 2°52.507 17.8338 4.480468 34.048043 0.253098
2010-09-09 13:39:43 51°31.391 2°52.191 17.8294 4.481629 34.058526 0.253098
2010-09-09 13:40:43 51°31.395 2°51.872 17.8304 4.481207 34.059169 0.218274
2010-09-09 13:41:44 51°31.392 2°51.55 17.8288 4.481101 34.054036 0.218274
2010-09-09 13:42:43 51°31.385 2°51.237 17.8286 4.480468 34.052882 0.218274
2010-09-09 13:43:43 51°31.379 2°50.917 17.8359 4.482262 34.063309 0.218274
2010-09-09 13:44:43 51°31.372 2°50.601 17.8349 4.484479 34.082168 0.218274
2010-09-09 13:45:43 51°31.365 2°50.284 17.8349 4.485429 34.089645 0.218274
2010-09-09 13:46:43 51°31.357 2°49.969 17.8319 4.484795 34.086073 0.287922
2010-09-09 13:47:43 51°31.351 2°49.651 17.8359 4.485534 34.09236 0.253098
2010-09-09 13:48:43 51°31.346 2°49.337 17.834 4.485218 34.090877 0.253098
2010-09-09 13:49:43 51°31.338 2°49.024 17.8283 4.484901 34.08576 0.253098
2010-09-09 13:50:43 51°31.332 2°48.709 17.829 4.486168 34.099566 0.253098
2010-09-09 13:51:43 51°31.325 2°48.393 17.8288 4.487751 34.114858 0.253098
2010-09-09 13:52:44 51°31.316 2°48.072 17.8237 4.490706 34.138194 0.253098
2010-09-09 13:53:44 51°31.319 2°47.825 17.8211 4.493028 34.160387 0.322746
2010-09-09 13:54:44 51°31.363 2°47.771 17.821 4.496089 34.189483 0.253098
2010-09-09 13:55:44 51°31.388 2°47.808 17.8184 4.496406 34.193395 0.35757
2010-09-09 13:56:46 51°31.408 2°47.854 17.8158 4.495878 34.191331 0.35757
2010-09-09 13:57:44 51°31.427 2°47.9 17.8171 4.494929 34.191142 0.35757
2010-09-09 13:58:43 51°31.446 2°47.948 17.8166 4.494717 34.189344 0.322746
2010-09-09 13:59:44 51°31.467 2°47.998 17.8311 4.495562 34.192281 0.322746
2010-09-09 14:00:43 51°31.488 2°48.046 17.8306 4.496934 34.189383 0.35757
2010-09-09 14:01:43 51°31.51 2°48.094 17.8248 4.496828 34.193952 0.322746
2010-09-09 14:02:43 51°31.533 2°48.142 17.8202 4.496406 34.189749 0.287922
2010-09-09 14:03:43 51°31.554 2°48.19 17.8223 4.495984 34.190407 0.392394
2010-09-09 14:04:43 51°31.575 2°48.238 17.8307 4.495878 34.187686 0.322746
2010-09-09 14:05:43 51°31.596 2°48.285 17.8284 4.496512 34.190648 0.322746
2010-09-09 14:06:43 51°31.617 2°48.329 17.8239 4.495034 34.181711 0.35757
2010-09-09 14:07:43 51°31.636 2°48.376 17.8268 4.496828 34.190914 0.287922
2010-09-09 14:08:43 51°31.656 2°48.425 17.8247 4.495245 34.182901 0.322746
2010-09-09 14:09:43 51°31.676 2°48.472 17.8264 4.497673 34.201141 0.322746
2010-09-09 14:10:44 51°31.697 2°48.519 17.8205 4.49324 34.16704 0.322746
2010-09-09 14:11:43 51°31.718 2°48.564 17.8299 4.495562 34.18742 0.287922
2010-09-09 14:12:43 51°31.739 2°48.609 17.8273 4.494506 34.177825 0.35757
2010-09-09 14:13:43 51°31.76 2°48.653 17.8546 4.495034 34.17746 0.322746
2010-09-09 14:14:43 51°31.782 2°48.695 17.8284 4.494928 34.165635 0.322746
2010-09-09 14:15:44 51°31.804 2°48.741 17.8306 4.493873 34.170004 0.322746
2010-09-09 14:16:43 51°31.825 2°48.786 17.8203 4.495245 34.176221 0.287922
2010-09-09 14:17:44 51°31.847 2°48.833 17.8389 4.492817 34.16466 0.253098
2010-09-09 14:18:43 51°31.869 2°48.88 17.8307 4.493767 34.160607 0.287922
2010-09-09 14:19:44 51°31.891 2°48.928 17.8378 4.494084 34.165123 0.287922
2010-09-09 14:20:43 51°31.912 2°48.972 17.8372 4.493345 34.1558 0.322746
2010-09-09 14:21:43 51°31.934 2°49.017 17.8368 4.494084 34.159055 0.253098
2010-09-09 14:22:43 51°31.955 2°49.061 17.824 4.493556 34.159417 0.322746
2010-09-09 14:23:43 51°31.977 2°49.105 17.8229 4.493345 34.167939 0.287922
2010-09-09 14:24:43 51°31.998 2°49.149 17.8251 4.492184 34.158661 0.287922
2010-09-09 14:25:43 51°32.019 2°49.194 17.824 4.491445 34.148122 0.322746
2010-09-09 14:26:43 51°32.04 2°49.24 17.8247 4.491973 34.153829 0.322746
2010-09-09 14:27:43 51°32.061 2°49.282 17.8287 4.492395 34.15803 0.322746
2010-09-09 14:28:43 51°32.081 2°49.325 17.8366 4.492817 34.156162 0.322746
2010-09-09 14:29:43 51°32.111 2°49.367 17.8517 4.493134 34.15279 0.35757
2010-09-09 14:30:43 51°32.162 2°49.32 17.8343 4.4944 34.15993 0.322746
2010-09-09 14:31:43 51°32.123 2°49.151 17.8317 4.492712 34.153443 0.218274
2010-09-09 14:32:43 51°32.027 2°48.935 17.8346 4.496406 34.185497 0.287922
2010-09-09 14:33:43 51°31.947 2°48.684 17.8304 4.495456 34.176196 0.287922
2010-09-09 14:34:43 51°31.863 2°48.426 17.8282 4.497884 34.200508 0.322746
2010-09-09 14:35:43 51°31.772 2°48.171 17.8306 4.500734 34.227206 0.322746
2010-09-09 14:36:43 51°31.68 2°47.923 17.8211 4.501261 34.229876 0.322746
2010-09-09 14:37:43 51°31.587 2°47.673 17.8186 4.501895 34.238919 0.322746
2010-09-09 14:38:43 51°31.479 2°47.448 17.8199 4.502317 34.245557 0.322746
2010-09-09 14:39:43 51°31.359 2°47.427 17.8193 4.502211 34.247093 0.287922
2010-09-09 14:40:43 51°31.307 2°47.522 17.8242 4.501367 34.235641 0.287922
2010-09-09 14:41:43 51°31.305 2°47.66 17.8197 4.500523 34.231491 0.287922
2010-09-09 14:42:43 51°31.302 2°47.783 17.8188 4.500734 34.230856 0.35757
2010-09-09 14:43:43 51°31.3 2°47.876 17.8253 4.499256 34.218271 0.35757
2010-09-09 14:44:43 51°31.303 2°47.957 17.8307 4.499784 34.217901 0.35757
2010-09-09 14:45:43 51°31.308 2°48.037 17.8235 4.49915 34.213724 0.322746
2010-09-09 14:46:43 51°31.316 2°48.128 17.8268 4.497039 34.19818 0.392394
2010-09-09 14:47:43 51°31.329 2°48.229 17.8287 4.498095 34.204129 0.392394
2010-09-09 14:48:43 51°31.337 2°48.33 17.8328 4.499045 34.209178 0.35757
2010-09-09 14:49:43 51°31.339 2°48.428 17.8319 4.498622 34.203153 0.427218
2010-09-09 14:50:43 51°31.34 2°48.526 17.8352 4.498939 34.206456 0.462042
2010-09-09 14:51:43 51°31.341 2°48.621 17.8344 4.497461 34.192053 0.392394
2010-09-09 14:52:43 51°31.341 2°48.715 17.8303 4.497567 34.195382 0.35757
2010-09-09 14:53:43 51°31.342 2°48.812 17.8293 4.496512 34.189433 0.392394
2010-09-09 14:54:43 51°31.341 2°48.905 17.8259 4.495562 34.180738 0.427218
2010-09-09 14:55:43 51°31.343 2°48.974 17.8232 4.494189 34.1727 0.427218
2010-09-09 14:56:43 51°31.341 2°49.035 17.8227 4.492923 34.159488 0.427218
2010-09-09 14:57:43 51°31.262 2°49.126 17.8189 4.494401 34.17389 0.462042
2010-09-09 14:58:43 51°31.092 2°49.201 17.8354 4.493873 34.176684 0.496866
2010-09-09 14:59:43 51°30.897 2°49.266 17.8289 4.494612 34.181153 0.462042
2010-09-09 15:00:43 51°30.704 2°49.339 17.8229 4.495034 34.187786 0.427218
2010-09-09 15:01:43 51°30.51 2°49.412 17.8228 4.495984 34.198308 0.392394
2010-09-09 15:02:44 51°30.315 2°49.491 17.8301 4.496512 34.202803 0.35757
2010-09-09 15:03:43 51°30.127 2°49.569 17.8271 4.496512 34.202195 0.392394
2010-09-09 15:04:43 51°29.936 2°49.647 17.8198 4.493134 34.175252 0.322746
2010-09-09 15:05:43 51°29.743 2°49.73 17.8058 4.487962 34.141527 0.35757
2010-09-09 15:06:43 51°29.552 2°49.82 17.8059 4.484268 34.114916 0.322746
2010-09-09 15:07:43 51°29.362 2°49.911 17.8185 4.477619 34.054652 0.35757
2010-09-09 15:08:43 51°29.169 2°49.996 17.8209 4.468119 33.967746 0.392394
2010-09-09 15:09:43 51°28.976 2°50.082 17.8365 4.461153 33.901845 0.427218
2010-09-09 15:10:43 51°28.783 2°50.166 17.8473 4.455348 33.841048 0.322746
2010-09-09 15:11:43 51°28.587 2°50.248 17.8379 4.448804 33.784825 0.287922
2010-09-09 15:12:43 51°28.391 2°50.332 17.8332 4.444899 33.755836 0.287922
2010-09-09 15:13:43 51°28.194 2°50.415 17.837 4.44511 33.751634 0.253098
2010-09-09 15:14:43 51°27.999 2°50.496 17.834 4.447115 33.772874 0.322746
2010-09-09 15:15:43 51°27.805 2°50.577 17.8362 4.449859 33.794396 0.287922
2010-09-09 15:16:43 51°27.61 2°50.657 17.8232 4.446482 33.772291 0.35757
2010-09-09 15:17:43 51°27.415 2°50.735 17.843 4.441627 33.737023 0.287922
2010-09-09 15:18:43 51°27.222 2°50.814 17.8448 4.437933 33.689462 0.322746
2010-09-09 15:19:43 51°27.028 2°50.892 17.8225 4.4316 33.64464 0.253098
2010-09-09 15:20:43 51°26.835 2°50.971 17.8274 4.427801 33.61595 0.287922
2010-09-09 15:21:43 51°26.642 2°51.053 17.8224 4.422524 33.574708 0.253098
2010-09-09 15:22:43 51°26.446 2°51.132 17.8224 4.418091 33.535869 0.18345
2010-09-09 15:23:43 51°26.25 2°51.211 17.8246 4.410386 33.472238 0.18345
2010-09-09 15:24:43 51°26.053 2°51.27 17.8295 4.401838 33.397892 0.148626
2010-09-09 15:25:43 51°25.855 2°51.316 17.8115 4.392867 33.322366 0.044153
2010-09-09 15:26:43 51°25.656 2°51.356 17.8165 4.383157 33.247687 0.078977
2010-09-09 15:27:43 51°25.457 2°51.393 17.819 4.384318 33.258717 0.009329
2010-09-09 15:28:43 51°25.258 2°51.43 17.8125 4.389384 33.293413 0.044153
2010-09-09 15:29:43 51°25.062 2°51.472 17.8335 4.3935 33.327739 0.113802
2010-09-09 15:30:43 51°24.864 2°51.511 17.8481 4.394977 33.325473 0.148626
2010-09-09 15:31:43 51°24.667 2°51.548 17.8488 4.390861 33.291161 0.18345
2010-09-09 15:32:43 51°24.468 2°51.586 17.8333 4.387378 33.263994 0.113802
2010-09-09 15:33:43 51°24.269 2°51.62 17.8157 4.387273 33.258965 0.148626
2010-09-09 15:34:43 51°24.069 2°51.649 17.8051 4.384107 33.251608 0.113802
2010-09-09 15:35:43 51°23.869 2°51.668 17.8008 4.382419 33.246738 0.148626
2010-09-09 15:36:43 51°23.67 2°51.686 17.7841 4.379464 33.229938 0.113802
2010-09-09 15:37:43 51°23.473 2°51.705 17.7726 4.374609 33.202326 0.078977
2010-09-09 15:38:43 51°23.274 2°51.727 17.7649 4.371549 33.182255 0.078977
2010-09-09 15:39:43 51°23.075 2°51.75 17.7722 4.369121 33.165194 0.044153
2010-09-09 15:40:43 51°22.874 2°51.774 17.7528 4.365111 33.131748 0.009329
2010-09-09 15:41:43 51°22.672 2°51.799 17.7435 4.360573 33.102664 -0.060319
2010-09-09 15:42:43 51°22.47 2°51.822 17.7479 4.354452 33.056601 -0.095143
2010-09-09 15:43:43 51°22.271 2°51.844 17.7362 4.348648 33.021453 -0.164791
2010-09-09 15:44:43 51°22.073 2°51.869 17.7678 4.340627 32.945752 -0.234439
2010-09-09 15:45:43 51°21.872 2°51.889 17.7382 4.329018 32.837348 -0.269263
2010-09-09 15:46:43 51°21.67 2°51.911 17.7337 4.31551 32.73626 -0.304087
2010-09-09 15:47:43 51°21.467 2°51.93 17.7513 4.308545 32.66734 -0.199615
2010-09-09 15:48:43 51°21.264 2°51.95 17.7826 4.305485 32.641415 -0.234439
2010-09-09 15:49:43 51°21.06 2°51.969 17.7702 4.302952 32.605456 -0.269263
2010-09-09 15:50:43 51°20.857 2°51.983 17.7596 4.299258 32.571871 -0.234439
2010-09-09 15:51:43 51°20.651 2°51.995 17.7356 4.292399 32.519023 -0.234439
2010-09-09 15:52:43 51°20.446 2°52.007 17.7393 4.285223 32.478519 -0.199615
2010-09-09 15:53:43 51°20.241 2°52.018 17.7296 4.282585 32.456761 -0.234439
2010-09-09 15:54:43 51°20.037 2°52.031 17.7375 4.280264 32.437108 -0.199615
2010-09-09 15:55:44 51°19.828 2°52.058 17.7402 4.281635 32.449299 -0.199615
2010-09-09 15:56:43 51°19.626 2°52.089 17.7608 4.288178 32.496596 -0.164791
2010-09-09 15:57:43 51°19.42 2°52.118 17.7859 4.297464 32.559581 -0.129967
2010-09-09 15:58:43 51°19.215 2°52.141 17.7222 4.311922 32.678505 -0.025495
2010-09-09 15:59:43 51°19.01 2°52.163 17.6959 4.32638 32.83836 0.078977
2010-09-09 16:00:43 51°18.805 2°52.184 17.6846 4.330285 32.887889 0.078977
2010-09-09 16:01:43 51°18.601 2°52.206 17.7044 4.335773 32.946808 0.113802
2010-09-09 16:02:43 51°18.396 2°52.224 17.7288 4.341683 32.982895 0.078977
2010-09-09 16:03:43 51°18.191 2°52.242 17.7474 4.341999 32.964435 0.078977
2010-09-09 16:04:43 51°17.986 2°52.26 17.7287 4.34411 32.971192 0.078977
2010-09-09 16:05:43 51°17.782 2°52.278 17.9841 2.344792 16.685082 -0.791624
2010-09-09 16:06:43 51°17.578 2°52.3 18.0821 2.334272 16.603191 -0.7568
2010-09-09 16:07:43 51°17.374 2°52.321 18.1328 2.35731 16.782295 -0.721976
2010-09-09 16:08:43 51°17.179 2°52.404 18.2112 2.342372 16.66536 -0.7568
2010-09-09 16:09:43 51°16.997 2°52.56 18.3109 2.323438 16.517431 -0.7568
2010-09-09 16:10:43 51°16.805 2°52.693 18.3863 2.318389 16.476711 -0.721976
2010-09-09 16:11:43 51°16.61 2°52.817 18.4622 2.293039 16.27888 -0.721976
2010-09-09 16:12:43 51°16.419 2°52.948 18.5232 2.32491 16.525091 -0.7568
2010-09-09 16:13:43 51°16.23 2°53.099 18.5652 2.290304 16.254203 -0.721976
2010-09-09 16:14:43 51°16.042 2°53.254 18.7159 2.319861 16.481466 -0.7568
2010-09-09 16:15:43 51°15.858 2°53.418 18.7673 2.281995 16.185436 -0.7568
2010-09-09 16:16:43 51°15.685 2°53.619 18.8526 2.318178 16.464317 -0.721976
2010-09-09 16:17:43 51°15.517 2°53.829 18.9166 2.28168 16.17842 -0.721976
2010-09-09 16:18:43 51°15.347 2°54.031 19.0013 2.35752 16.765573 -0.7568
2010-09-09 16:19:43 51°15.175 2°54.234 19.1256 2.282205 16.178502 -0.721976
2010-09-09 16:20:43 51°15.005 2°54.437 19.1736 2.274002 16.112926 -0.7568
2010-09-09 16:21:43 51°14.839 2°54.646 19.1967 2.319125 16.460635 -0.721976
2010-09-09 16:22:44 51°14.669 2°54.843 19.2578 2.321859 16.48042 -0.721976
2010-09-09 16:23:43 51°14.501 2°55.027 19.3341 2.32754 16.522497 -0.7568
2010-09-09 16:24:43 51°14.333 2°55.218 19.3871 2.301453 16.318299 -0.7568
2010-09-09 16:25:43 51°14.173 2°55.37 19.4406 2.304188 16.337207 -0.7568
2010-09-09 16:26:43 51°14.038 2°55.473 19.5296 2.318914 16.44972 -0.7568
2010-09-09 16:27:43 51°13.929 2°55.552 19.6064 2.313444 16.405254 -0.7568
2010-09-09 16:28:43 51°13.829 2°55.629 19.681 2.320387 16.457379 -0.7568
2010-09-09 16:29:43 51°13.75 2°55.731 19.7719 2.311551 16.386526 -0.7568
2010-09-09 16:30:43 51°13.699 2°55.833 19.8089 2.315127 16.412528 -0.721976
2010-09-09 16:31:43 51°13.669 2°55.932 19.8765 2.310604 16.375435 -0.791624
2010-09-09 16:32:43 51°13.662 2°55.958 19.9846 2.301663 16.304127 -0.7568